KLM11A EHAM-CYVR

Flight info

Callsign KLM11A
Flight time N/A
Altitude 35000
Route ANDIK Z733 KONOM DCT SUTEB/N0489F320 DCT KARLI DCT ALLOY DCT IPTON/M084F320 DCT 65N020W/M084F340 65N030W 66N040W 67N050W DCT EPMAN/N0489F340 DCT YZS/N0486F360 DCT YMM DCT YZU/N0472F380 DCT NADPI DCT MERYT DCT BOOTH VITEV5
Aircraft B77W/H-SDE1E2E3FGHIJ2J3J4J5M1RWXY/LB1D1

Departure

Time 2026-04-30 10:06
Airport Amsterdam Airport Schiphol (EHAM)

Arrival

Time N/A
Airport Vancouver International Airport (CYVR)
Time Latitude Longitude Altitude Speed Heading
2026-04-30 08:34 52.31285 4.76925 4 ft 0 kts 303°
2026-04-30 08:38 52.31285 4.76926 4 ft 0 kts 303°
2026-04-30 08:38 52.31284 4.76926 4 ft 0 kts 303°
2026-04-30 08:46 52.31284 4.76927 4 ft 0 kts 303°
2026-04-30 08:54 52.31284 4.76928 4 ft 0 kts 303°
2026-04-30 08:59 52.31283 4.76928 4 ft 0 kts 303°
2026-04-30 09:03 52.31283 4.76929 4 ft 0 kts 303°
2026-04-30 09:11 52.31283 4.76930 4 ft 0 kts 303°
2026-04-30 09:18 52.31282 4.76930 4 ft 0 kts 303°
2026-04-30 09:19 52.31282 4.76931 4 ft 0 kts 303°
2026-04-30 09:26 52.31282 4.76932 4 ft 0 kts 303°
2026-04-30 09:34 52.31282 4.76933 4 ft 0 kts 303°
2026-04-30 09:38 52.31281 4.76933 4 ft 0 kts 303°
2026-04-30 09:42 52.31281 4.76934 4 ft 0 kts 303°
2026-04-30 09:45 52.31274 4.76952 5 ft 3 kts 302°
2026-04-30 09:45 52.31260 4.76988 6 ft 4 kts 317°
2026-04-30 09:45 52.31253 4.77007 5 ft 4 kts 50°
2026-04-30 09:45 52.31260 4.77041 5 ft 2 kts 69°
2026-04-30 09:46 52.31265 4.77054 4 ft 4 kts 55°
2026-04-30 09:46 52.31283 4.77085 4 ft 4 kts 49°
2026-04-30 09:46 52.31293 4.77117 4 ft 3 kts 68°
2026-04-30 09:46 52.31296 4.77158 4 ft 4 kts 89°
2026-04-30 09:47 52.31295 4.77202 4 ft 4 kts 95°
2026-04-30 09:47 52.31293 4.77246 4 ft 0 kts 93°
2026-04-30 09:47 52.31292 4.77254 4 ft 0 kts 92°
2026-04-30 09:48 52.31293 4.77254 4 ft 0 kts 92°
2026-04-30 09:48 52.31292 4.77254 4 ft 0 kts 92°
2026-04-30 09:48 52.31293 4.77254 4 ft 0 kts 92°
2026-04-30 09:50 52.31293 4.77253 4 ft 0 kts 92°
2026-04-30 09:54 52.31293 4.77252 4 ft 0 kts 92°
2026-04-30 09:57 52.31292 4.77274 4 ft 7 kts 92°
2026-04-30 09:57 52.31288 4.77409 4 ft 17 kts 92°
2026-04-30 09:57 52.31315 4.77630 4 ft 24 kts 35°
2026-04-30 09:58 52.31495 4.77577 4 ft 26 kts 319°
2026-04-30 09:58 52.31609 4.77505 4 ft 20 kts 14°
2026-04-30 09:58 52.31734 4.77662 3 ft 26 kts 32°
2026-04-30 09:58 52.31931 4.77706 4 ft 32 kts
2026-04-30 09:59 52.32083 4.77836 4 ft 0 kts 42°
2026-04-30 10:01 52.32083 4.77835 4 ft 0 kts 42°
2026-04-30 10:03 52.32083 4.77836 4 ft 0 kts 42°
2026-04-30 10:03 52.32088 4.77843 4 ft 3 kts 42°
2026-04-30 10:03 52.32111 4.77890 4 ft 8 kts 63°
2026-04-30 10:03 52.32101 4.77993 4 ft 11 kts 138°
2026-04-30 10:04 52.32022 4.78006 4 ft 0 kts 182°
2026-04-30 10:05 52.31990 4.78004 3 ft 19 kts 182°
2026-04-30 10:05 52.31589 4.77968 5 ft 97 kts 183°
2026-04-30 10:05 52.30668 4.77902 3 ft 167 kts 184°
2026-04-30 10:06 52.29808 4.77835 41 ft 201 kts 179°
2026-04-30 10:06 52.28382 4.77663 565 ft 201 kts 173°
2026-04-30 10:06 52.26743 4.78591 1568 ft 186 kts 135°
2026-04-30 10:06 52.26149 4.79641 1940 ft 189 kts 124°
2026-04-30 10:07 52.25635 4.82437 2265 ft 209 kts 91°
2026-04-30 10:07 52.25654 4.84066 2581 ft 215 kts 94°
2026-04-30 10:07 52.25576 4.86547 3136 ft 223 kts 96°
2026-04-30 10:07 52.25502 4.89118 3699 ft 230 kts 95°
2026-04-30 10:08 52.25439 4.91762 4298 ft 236 kts 95°
2026-04-30 10:08 52.25378 4.94454 4959 ft 239 kts 95°
2026-04-30 10:08 52.25515 4.97167 5471 ft 248 kts 73°
2026-04-30 10:08 52.26438 4.99609 6006 ft 261 kts 50°
2026-04-30 10:09 52.27825 5.01560 6604 ft 266 kts 44°
2026-04-30 10:09 52.29256 5.03482 7238 ft 266 kts 45°
2026-04-30 10:09 52.30684 5.05421 7866 ft 268 kts 45°
2026-04-30 10:09 52.32121 5.07381 8518 ft 269 kts 45°
2026-04-30 10:10 52.33614 5.09232 9078 ft 274 kts 32°
2026-04-30 10:10 52.35469 5.10243 9469 ft 286 kts 19°
2026-04-30 10:10 52.37407 5.11036 10060 ft 287 kts 20°
2026-04-30 10:10 52.39339 5.11854 10671 ft 289 kts 20°
2026-04-30 10:11 52.41302 5.12702 10909 ft 305 kts 20°
2026-04-30 10:11 52.43416 5.13626 11070 ft 324 kts 20°
2026-04-30 10:11 52.45661 5.14611 11243 ft 344 kts 20°
2026-04-30 10:11 52.48036 5.15655 11420 ft 362 kts 19°
2026-04-30 10:12 52.50501 5.16736 11887 ft 371 kts 19°
2026-04-30 10:12 52.53021 5.17841 12453 ft 378 kts 19°
2026-04-30 10:12 52.55575 5.18964 13131 ft 381 kts 19°
2026-04-30 10:12 52.58144 5.20095 13859 ft 384 kts 18°
2026-04-30 10:13 52.60732 5.21240 14535 ft 387 kts 18°
2026-04-30 10:13 52.63341 5.22397 15137 ft 390 kts 19°
2026-04-30 10:13 52.65973 5.23567 15733 ft 394 kts 19°
2026-04-30 10:13 52.68630 5.24750 16317 ft 397 kts 19°
2026-04-30 10:14 52.71312 5.25945 16932 ft 401 kts 19°
2026-04-30 10:14 52.74013 5.27144 17555 ft 404 kts 18°
2026-04-30 10:14 52.79645 5.28628 18718 ft 415 kts 11°
2026-04-30 10:15 52.82520 5.29218 19241 ft 417 kts 11°
2026-04-30 10:15 52.85404 5.29869 19759 ft 420 kts 12°
2026-04-30 10:15 52.88304 5.30574 20282 ft 422 kts 12°
2026-04-30 10:15 52.91219 5.31302 20806 ft 425 kts 12°
2026-04-30 10:16 52.94149 5.32039 21327 ft 427 kts 12°
2026-04-30 10:16 52.97101 5.32782 21823 ft 430 kts 12°
2026-04-30 10:16 53.00072 5.33527 22301 ft 434 kts 12°
2026-04-30 10:17 53.06077 5.35028 23271 ft 439 kts 11°
2026-04-30 10:17 53.12168 5.36550 24172 ft 445 kts 11°
2026-04-30 10:17 53.15238 5.37318 24562 ft 448 kts 11°
2026-04-30 10:18 53.18283 5.38081 24939 ft 450 kts 11°
2026-04-30 10:18 53.21384 5.38860 25322 ft 452 kts 11°
2026-04-30 10:18 53.24506 5.39644 25709 ft 454 kts 11°
2026-04-30 10:19 53.30787 5.41228 26440 ft 459 kts 11°
2026-04-30 10:19 53.33951 5.42027 26784 ft 461 kts 11°
2026-04-30 10:19 53.37131 5.42832 27139 ft 464 kts 11°
2026-04-30 10:19 53.40329 5.43642 27484 ft 466 kts 11°
2026-04-30 10:20 53.43538 5.44456 27832 ft 468 kts 10°
2026-04-30 10:20 53.50004 5.46101 28480 ft 472 kts 11°
2026-04-30 10:20 53.53258 5.46931 28789 ft 474 kts 10°
2026-04-30 10:21 53.56525 5.47765 29078 ft 476 kts 10°
2026-04-30 10:21 53.59802 5.48603 29353 ft 478 kts 10°
2026-04-30 10:21 53.63109 5.49320 29627 ft 480 kts
2026-04-30 10:21 53.66449 5.49616 29911 ft 482 kts
2026-04-30 10:22 53.69805 5.49435 30185 ft 483 kts 359°
2026-04-30 10:22 53.73166 5.49159 30544 ft 482 kts 359°
2026-04-30 10:22 53.76511 5.48886 30876 ft 481 kts 359°
2026-04-30 10:22 53.79846 5.48641 31207 ft 479 kts 359°
2026-04-30 10:23 53.83172 5.48426 31519 ft 478 kts 359°
2026-04-30 10:23 53.86489 5.48231 31808 ft 477 kts 360°
2026-04-30 10:23 53.89797 5.48097 32123 ft 473 kts
2026-04-30 10:23 53.93076 5.48144 32258 ft 470 kts
2026-04-30 10:24 53.96359 5.48058 32359 ft 473 kts 359°
2026-04-30 10:24 53.99649 5.47795 32579 ft 473 kts 359°
2026-04-30 10:24 54.02935 5.47549 32783 ft 473 kts 359°
2026-04-30 10:24 54.06213 5.47222 33068 ft 470 kts 359°
2026-04-30 10:25 54.09478 5.47038 33244 ft 469 kts 359°
2026-04-30 10:25 54.12745 5.46847 33387 ft 470 kts 359°
2026-04-30 10:25 54.16001 5.46712 33696 ft 465 kts 359°
2026-04-30 10:25 54.19238 5.46577 33783 ft 465 kts 359°
2026-04-30 10:26 54.25662 5.46253 34044 ft 466 kts 358°
2026-04-30 10:26 54.28904 5.45997 34168 ft 467 kts 358°
2026-04-30 10:26 54.32144 5.45760 34420 ft 465 kts 358°
2026-04-30 10:27 54.35375 5.45549 34621 ft 464 kts 359°
2026-04-30 10:27 54.38605 5.45359 34758 ft 464 kts 358°
2026-04-30 10:27 54.41824 5.45179 34972 ft 462 kts 358°
2026-04-30 10:27 54.45041 5.45005 35114 ft 463 kts 358°
2026-04-30 10:28 54.48259 5.44830 35231 ft 462 kts 358°
2026-04-30 10:28 54.51472 5.44654 35391 ft 462 kts 358°
2026-04-30 10:28 54.57918 5.44295 35493 ft 464 kts 358°
2026-04-30 10:29 54.64388 5.43920 35505 ft 466 kts 357°
2026-04-30 10:29 54.70856 5.43436 35500 ft 465 kts 358°
2026-04-30 10:30 54.77331 5.43181 35515 ft 466 kts 358°
2026-04-30 10:30 54.83814 5.42843 35520 ft 466 kts 358°
2026-04-30 10:31 54.90307 5.42460 35510 ft 467 kts 358°
2026-04-30 10:31 54.96712 5.42474 35526 ft 457 kts 353°
2026-04-30 10:32 55.03065 5.41519 35511 ft 460 kts 359°
2026-04-30 10:32 55.09489 5.41882 35528 ft 463 kts
2026-04-30 10:33 55.15948 5.42428 35513 ft 464 kts
2026-04-30 10:33 55.22367 5.42835 35439 ft 467 kts
2026-04-30 10:34 55.28854 5.43256 35502 ft 467 kts
2026-04-30 10:34 55.35362 5.43454 35515 ft 469 kts
2026-04-30 10:35 55.41892 5.43688 35519 ft 470 kts
2026-04-30 10:35 55.48431 5.44036 35518 ft 470 kts
2026-04-30 10:36 55.54975 5.44257 35515 ft 470 kts
2026-04-30 10:36 55.61518 5.44509 35515 ft 470 kts
2026-04-30 10:37 55.68049 5.44788 35521 ft 469 kts
2026-04-30 10:37 55.74571 5.45074 35519 ft 468 kts
2026-04-30 10:38 55.81037 5.45357 35519 ft 467 kts
2026-04-30 10:38 55.87534 5.45641 35520 ft 467 kts
2026-04-30 10:39 55.94025 5.45925 35519 ft 466 kts
2026-04-30 10:39 56.00510 5.46209 35524 ft 466 kts
2026-04-30 10:40 56.06995 5.46495 35520 ft 466 kts
2026-04-30 10:40 56.13481 5.46781 35521 ft 466 kts
2026-04-30 10:41 56.19967 5.47069 35533 ft 466 kts
2026-04-30 10:41 56.26459 5.47358 35525 ft 467 kts
2026-04-30 10:42 56.32955 5.47648 35523 ft 467 kts
2026-04-30 10:42 56.39456 5.47939 35523 ft 467 kts
2026-04-30 10:43 56.45959 5.48231 35530 ft 468 kts
2026-04-30 10:43 56.52420 5.48523 35525 ft 468 kts
2026-04-30 10:44 56.58926 5.48817 35523 ft 467 kts
2026-04-30 10:44 56.65430 5.49112 35522 ft 467 kts
2026-04-30 10:45 56.71924 5.49408 35522 ft 467 kts
2026-04-30 10:45 56.78415 5.49705 35520 ft 466 kts
2026-04-30 10:46 56.84902 5.50003 35520 ft 466 kts
2026-04-30 10:46 56.91383 5.50301 35521 ft 466 kts
2026-04-30 10:47 56.97850 5.50251 35507 ft 464 kts 352°
2026-04-30 10:47 57.04133 5.47755 35527 ft 462 kts 340°
2026-04-30 10:48 57.10092 5.43369 35531 ft 461 kts 337°
2026-04-30 10:48 57.16015 5.38819 35518 ft 462 kts 337°
2026-04-30 10:49 57.21950 5.34294 35519 ft 462 kts 337°
2026-04-30 10:49 57.27901 5.29789 35523 ft 462 kts 337°
2026-04-30 10:50 57.32845 5.26049 35522 ft 462 kts 337°
2026-04-30 10:50 57.39763 5.20799 35520 ft 462 kts 337°